Dades meteomassalio
Diari Summary for Maig 27, 2017 Units:  Metric    English   Both
« Previous Day
Next Day »
Diari Semanal Mensual Anual Personalitzat
  Maxima: Minima: Mijana:
Temperatura: -17.8 °C -9.7 °C -5.2 °C
Rosada: -17.8 °C -11.2 °C -9.9 °C
Humitat: Humidity % 40 % 61 %
Velocitat del vent: 0 km/h 0 km/h 15.6 km/h
Racha vent: 0 km/h - -
Vent:- - ESE
Pressio: 0 hPa 34293.4 hPa -
Pluja: 0 mm    
Historical Graphs
 
 
Tabular Data for Maig 27, 2017
Time Temperature Dew Point Pressure Wind Wind Speed Wind Gust Humidity Rainfall Rate (Hourly) solar Conditions
-17.8 °C -17.8 °C 0 hPa Calm     Humidity % 0 mm SolarRadiationWatts/m^2 W/m2 Conditions
00:02 -6.6 °C -9.6 °C 34303.6 hPa Calm     71 % 0 mm 0.0 W/m2 CLR
00:07 -6.6 °C -9.6 °C 34293.4 hPa Calm     71 % 0 mm 0.0 W/m2 CLR
00:12 -6.6 °C -9.4 °C 34293.4 hPa Calm     72 % 0 mm 0.0 W/m2 CLR
00:17 -6.6 °C -9.6 °C 34293.4 hPa Calm     71 % 0 mm 0.0 W/m2 CLR
00:22 -6.6 °C -9.6 °C 34303.6 hPa Calm     71 % 0 mm 0.0 W/m2 CLR
00:27 -6.6 °C -9.5 °C 34303.6 hPa Calm     72 % 0 mm 0.0 W/m2 CLR
00:32 -6.7 °C -9.4 °C 34303.6 hPa Calm     73 % 0 mm 0.0 W/m2 CLR
00:42 -6.8 °C -9.6 °C 34303.6 hPa Calm     73 % 0 mm 0.0 W/m2 CLR
00:47 -6.8 °C -9.5 °C 34303.6 hPa Calm     74 % 0 mm 0.0 W/m2 CLR
00:52 -6.9 °C -9.6 °C 34303.6 hPa Calm     74 % 0 mm 0.0 W/m2 CLR
00:57 -7 °C -9.7 °C 34303.6 hPa Calm     74 % 0 mm 0.0 W/m2 CLR
01:02 -7.2 °C -9.7 °C 34303.6 hPa Calm     75 % 0 mm 0.0 W/m2 CLR
01:07 -7.3 °C -9.6 °C 34313.7 hPa Calm     77 % 0 mm 0.0 W/m2 CLR
01:12 -7.3 °C -9.6 °C 34313.7 hPa Calm     77 % 0 mm 0.0 W/m2 CLR
01:17 -7.3 °C -9.6 °C 34303.6 hPa Calm     77 % 0 mm 0.0 W/m2 CLR
01:22 -7.2 °C -9.5 °C 34313.7 hPa Calm     77 % 0 mm 0.0 W/m2 CLR
01:27 -7.2 °C -9.4 °C 34313.7 hPa Calm     77 % 0 mm 0.0 W/m2 CLR
01:32 -7.2 °C -9.6 °C 34313.7 hPa Calm     76 % 0 mm 0.0 W/m2 CLR
01:37 -7.2 °C -9.6 °C 34313.7 hPa Calm     76 % 0 mm 0.0 W/m2 CLR
01:42 -7.2 °C -9.6 °C 34313.7 hPa Calm     76 % 0 mm 0.0 W/m2 CLR
01:47 -7.2 °C -9.6 °C 34313.7 hPa Calm     76 % 0 mm 0.0 W/m2 CLR
01:52 -7.2 °C -9.6 °C 34313.7 hPa Calm     76 % 0 mm 0.0 W/m2 CLR
01:57 -7.3 °C -9.7 °C 34313.7 hPa Calm     76 % 0 mm 0.0 W/m2 CLR
02:02 -7.3 °C -9.7 °C 34313.7 hPa Calm     76 % 0 mm 0.0 W/m2 CLR
02:07 -7.3 °C -9.6 °C 34313.7 hPa Calm     77 % 0 mm 0.0 W/m2 CLR
02:08 -7.3 °C -9.6 °C 34327.3 hPa Calm     77 % 0 mm 0.0 W/m2 CLR
02:13 -7.4 °C -9.7 °C 34327.3 hPa Calm     77 % 0 mm 0.0 W/m2 CLR
02:18 -7.4 °C -9.6 °C 34327.3 hPa Calm     78 % 0 mm 0.0 W/m2 CLR
02:23 -7.5 °C -9.8 °C 34327.3 hPa Calm     77 % 0 mm 0.0 W/m2 CLR
02:28 -7.6 °C -9.8 °C 34327.3 hPa Calm     78 % 0 mm 0.0 W/m2 CLR
02:33 -7.6 °C -9.6 °C 34337.4 hPa Calm     79 % 0 mm 0.0 W/m2 CLR
02:38 -7.6 °C -9.6 °C 34327.3 hPa Calm     79 % 0 mm 0.0 W/m2 CLR
02:43 -7.6 °C -9.6 °C 34337.4 hPa Calm     79 % 0 mm 0.0 W/m2 CLR
02:48 -7.6 °C -9.7 °C 34337.4 hPa Calm     79 % 0 mm 0.0 W/m2 CLR
02:53 -7.6 °C -9.6 °C 34327.3 hPa Calm     80 % 0 mm 0.0 W/m2 CLR
02:58 -7.6 °C -9.6 °C 34337.4 hPa Calm     80 % 0 mm 0.0 W/m2 CLR
03:03 -7.7 °C -9.6 °C 34337.4 hPa Calm     80 % 0 mm 0.0 W/m2 CLR
03:08 -7.7 °C -9.6 °C 34337.4 hPa Calm     80 % 0 mm 0.0 W/m2 CLR
03:13 -7.9 °C -9.9 °C 34347.6 hPa Calm     79 % 0 mm 0.0 W/m2 CLR
03:18 -7.9 °C -9.8 °C 34347.6 hPa Calm     81 % 0 mm 0.0 W/m2 CLR
03:23 -7.9 °C -9.7 °C 34347.6 hPa Calm     82 % 0 mm 0.0 W/m2 CLR
03:28 -7.9 °C -9.7 °C 34347.6 hPa Calm     82 % 0 mm 0.0 W/m2 CLR
03:33 -7.9 °C -9.7 °C 34347.6 hPa Calm     82 % 0 mm 0.0 W/m2 CLR
03:38 -7.9 °C -9.8 °C 34347.6 hPa Calm     81 % 0 mm 0.0 W/m2 CLR
03:43 -8 °C -9.8 °C 34347.6 hPa Calm     81 % 0 mm 0.0 W/m2 CLR
03:48 -8.1 °C -9.9 °C 34347.6 hPa Calm     81 % 0 mm 0.0 W/m2 CLR
03:53 -8.2 °C -10.1 °C 34361.1 hPa Calm     81 % 0 mm 0.0 W/m2 CLR
04:03 -8.3 °C -9.9 °C 34361.1 hPa Calm     83 % 0 mm 0.0 W/m2 CLR
04:08 -8.4 °C -10 °C 34361.1 hPa Calm     83 % 0 mm 0.0 W/m2 CLR
04:13 -8.4 °C -10.2 °C 34361.1 hPa Calm     82 % 0 mm 0.0 W/m2 CLR
04:18 -8.5 °C -10.1 °C 34361.1 hPa Calm     83 % 0 mm 0.0 W/m2 CLR
04:23 -8.6 °C -10.2 °C 34361.1 hPa Calm     83 % 0 mm 0.0 W/m2 CLR
04:28 -8.6 °C -10.2 °C 34361.1 hPa Calm     83 % 0 mm 0.0 W/m2 CLR
04:33 -8.7 °C -10.3 °C 34361.1 hPa Calm     83 % 0 mm 0.0 W/m2 CLR
04:38 -8.7 °C -10.3 °C 34361.1 hPa Calm     83 % 0 mm 0.0 W/m2 CLR
04:43 -8.7 °C -10.2 °C 34361.1 hPa Calm     84 % 0 mm 0.0 W/m2 CLR
04:48 -8.7 °C -10.2 °C 34361.1 hPa Calm     84 % 0 mm 0.0 W/m2 CLR
04:53 -8.8 °C -10.4 °C 34361.1 hPa Calm     83 % 0 mm 0.0 W/m2 CLR
04:58 -8.8 °C -10.4 °C 34361.1 hPa Calm     83 % 0 mm 0.0 W/m2 CLR
05:03 -8.8 °C -10.4 °C 34361.1 hPa Calm     83 % 0 mm 0.0 W/m2 CLR
05:08 -8.9 °C -10.4 °C 34361.1 hPa Calm     84 % 0 mm 0.0 W/m2 CLR
05:13 -8.9 °C -10.4 °C 34361.1 hPa Calm     84 % 0 mm 0.0 W/m2 CLR
05:18 -8.9 °C -10.4 °C 34361.1 hPa Calm     84 % 0 mm 0.0 W/m2 CLR
05:23 -9 °C -10.6 °C 34371.3 hPa Calm     83 % 0 mm 0.0 W/m2 CLR
05:28 -9.1 °C -10.7 °C 34371.3 hPa Calm     83 % 0 mm 0.0 W/m2 CLR
05:33 -9.1 °C -10.7 °C 34371.3 hPa Calm     83 % 0 mm 0.0 W/m2 CLR
05:38 -9.1 °C -10.7 °C 34371.3 hPa Calm     83 % 0 mm 0.0 W/m2 CLR
05:43 -9.1 °C -10.6 °C 34371.3 hPa Calm     84 % 0 mm 0.0 W/m2 CLR
05:48 -9.2 °C -10.8 °C 34371.3 hPa Calm     83 % 0 mm 0.0 W/m2 CLR
05:53 -9.3 °C -10.9 °C 34371.3 hPa Calm     83 % 0 mm 0.0 W/m2 CLR
05:58 -9.3 °C -10.8 °C 34371.3 hPa Calm     84 % 0 mm 0.0 W/m2 CLR
06:03 -9.3 °C -10.7 °C 34371.3 hPa Calm     85 % 0 mm 0.0 W/m2 CLR
06:08 -9.4 °C -10.9 °C 34371.3 hPa Calm     84 % 0 mm 0.0 W/m2 CLR
06:13 -9.4 °C -10.9 °C 34371.3 hPa Calm     84 % 0 mm 0.0 W/m2 CLR
06:18 -9.6 °C -11 °C 34371.3 hPa Calm     84 % 0 mm 0.0 W/m2 CLR
06:23 -9.6 °C -11.1 °C 34371.3 hPa Calm     84 % 0 mm 0.0 W/m2 OVC
06:28 -9.6 °C -11.1 °C 34384.8 hPa Calm     84 % 0 mm 0.0 W/m2 OVC
06:33 -9.6 °C -11 °C 34384.8 hPa Calm     85 % 0 mm 0.0 W/m2 OVC
06:38 -9.6 °C -11 °C 34384.8 hPa Calm     85 % 0 mm 5.0 W/m2 OVC
06:43 -9.6 °C -11.1 °C 34384.8 hPa Calm     84 % 0 mm 9.0 W/m2 BKN
06:48 -9.7 °C -11.2 °C 34384.8 hPa Calm     84 % 0 mm 11.0 W/m2 BKN
06:53 -9.7 °C -11.1 °C 34384.8 hPa Calm     85 % 0 mm 14.0 W/m2 BKN
06:58 -9.7 °C -11.1 °C 34395 hPa Calm     85 % 0 mm 19.0 W/m2 BKN
07:04 -9.7 °C -11.1 °C 34395 hPa Calm     85 % 0 mm 23.0 W/m2 BKN
07:09 -9.7 °C -11 °C 34395 hPa Calm     86 % 0 mm 26.0 W/m2 BKN
07:14 -9.7 °C -11.1 °C 34395 hPa Calm     85 % 0 mm 33.0 W/m2 BKN
07:19 -9.7 °C -11 °C 34395 hPa Calm     86 % 0 mm 40.0 W/m2 BKN
07:24 -9.7 °C -11.1 °C 34395 hPa Calm     85 % 0 mm 53.0 W/m2 SCT
07:29 -9.6 °C -11 °C 34395 hPa Calm     85 % 0 mm 60.0 W/m2 SCT
07:34 -9.6 °C -10.9 °C 34395 hPa Calm     85 % 0 mm 58.0 W/m2 SCT
07:35 -9.6 °C -10.9 °C 34395 hPa Calm     85 % 0 mm 65.0 W/m2 SCT
07:40 -9.4 °C -10.8 °C 34395 hPa Calm     85 % 0 mm 97.0 W/m2 FEW
07:45 -9.3 °C -10.8 °C 34395 hPa Calm     84 % 0 mm 113.0 W/m2 CLR
07:50 -9.2 °C -10.7 °C 34395 hPa Calm     84 % 0 mm 127.0 W/m2 CLR
07:55 -9 °C -10.6 °C 34395 hPa Calm     83 % 0 mm 141.0 W/m2 CLR
08:00 -8.8 °C -10.4 °C 34395 hPa Calm     82 % 0 mm 156.0 W/m2 CLR
08:05 -8.6 °C -10.4 °C 34395 hPa Calm     81 % 0 mm 174.0 W/m2 CLR
08:10 -8.4 °C -10.3 °C 34395 hPa Calm     80 % 0 mm 192.0 W/m2 CLR
08:15 -8.2 °C -10.2 °C 34395 hPa Calm     79 % 0 mm 207.0 W/m2 CLR
08:20 -7.9 °C -10.1 °C 34395 hPa Calm     78 % 0 mm 223.0 W/m2 CLR
08:25 -7.7 °C -9.9 °C 34395 hPa Calm     78 % 0 mm 243.0 W/m2 CLR
08:26 -7.7 °C -9.9 °C 34395 hPa Calm     78 % 0 mm 243.0 W/m2 CLR
08:31 -7.4 °C -9.6 °C 34405.1 hPa Calm     78 % 0 mm 260.0 W/m2 CLR
08:36 -7.2 °C -9.5 °C 34405.1 hPa Calm     77 % 0 mm 278.0 W/m2 CLR
08:41 -7 °C -9.6 °C 34395 hPa Calm     75 % 0 mm 297.0 W/m2 CLR
08:46 -6.9 °C -9.4 °C 34395 hPa Calm     75 % 0 mm 313.0 W/m2 CLR
08:51 -6.8 °C -9.5 °C 34395 hPa Calm     74 % 0 mm 329.0 W/m2 CLR
08:56 -6.7 °C -9.3 °C 34395 hPa Calm     74 % 0 mm 345.0 W/m2 CLR
08:58 -6.6 °C -9.4 °C 34395 hPa Calm     73 % 0 mm 348.0 W/m2 CLR
09:03 -6.5 °C -9.4 °C 34395 hPa Calm     72 % 0 mm 362.0 W/m2 CLR
09:08 -6.3 °C -9.2 °C 34395 hPa Calm     72 % 0 mm 376.0 W/m2 CLR
09:13 -6.2 °C -9.2 °C 34395 hPa Calm     71 % 0 mm 373.0 W/m2 CLR
09:18 -6 °C -9.1 °C 34395 hPa Calm     70 % 0 mm 353.0 W/m2 CLR
09:23 -5.8 °C -9.1 °C 34395 hPa Calm     69 % 0 mm 420.0 W/m2 CLR
09:28 -5.7 °C -9.1 °C 34395 hPa Calm     68 % 0 mm 439.0 W/m2 CLR
09:33 -5.5 °C -9.2 °C 34395 hPa ENE 9 km/h 9 km/h 66 % 0 mm 455.0 W/m2 CLR
09:38 -5.4 °C -9.2 °C 34395 hPa ENE 15 km/h 15 km/h 65 % 0 mm 469.0 W/m2 CLR
09:43 -5.2 °C -9.2 °C 34395 hPa ESE 15 km/h 15 km/h 64 % 0 mm 485.0 W/m2 CLR
09:48 -5.2 °C -9.3 °C 34395 hPa East 11.9 km/h 11.9 km/h 63 % 0 mm 503.0 W/m2 CLR
09:53 -5.2 °C -9.2 °C 34395 hPa ENE 15 km/h 15 km/h 64 % 0 mm 494.0 W/m2 CLR
09:58 -5.1 °C -9.1 °C 34395 hPa SE 15 km/h 15 km/h 64 % 0 mm 529.0 W/m2 CLR
10:03 -5.1 °C -9.2 °C 34395 hPa East 20.9 km/h 20.9 km/h 63 % 0 mm 540.0 W/m2 CLR
10:08 -5.1 °C -9.3 °C 34395 hPa ENE 15 km/h 15 km/h 62 % 0 mm 548.0 W/m2 CLR
10:13 -4.9 °C -9.3 °C 34395 hPa East 11.9 km/h 11.9 km/h 61 % 0 mm 564.0 W/m2 CLR
10:18 -4.8 °C -9.4 °C 34395 hPa ESE 15 km/h 15 km/h 60 % 0 mm 575.0 W/m2 CLR
10:23 -4.7 °C -9.3 °C 34395 hPa ESE 20.9 km/h 20.9 km/h 60 % 0 mm 599.0 W/m2 CLR
10:28 -4.7 °C -9.5 °C 34395 hPa ESE 17.9 km/h 17.9 km/h 58 % 0 mm 615.0 W/m2 CLR
10:33 -4.6 °C -9.5 °C 34395 hPa ESE 17.9 km/h 17.9 km/h 58 % 0 mm 628.0 W/m2 CLR
10:38 -4.6 °C -9.7 °C 34395 hPa East 9 km/h 9 km/h 56 % 0 mm 640.0 W/m2 CLR
10:43 -4.4 °C -9.4 °C 34395 hPa ESE 11.9 km/h 11.9 km/h 57 % 0 mm 650.0 W/m2 CLR
10:48 -4.3 °C -9.4 °C 34395 hPa ESE 15 km/h 15 km/h 56 % 0 mm 664.0 W/m2 CLR
10:53 -4.1 °C -9.4 °C 34395 hPa East 20.8 km/h 20.8 km/h 55 % 0 mm 680.0 W/m2 CLR
10:58 -3.8 °C -9.6 °C 34395 hPa NE 15.6 km/h 15.6 km/h 53 % 0 mm 691.0 W/m2 CLR
11:03 -3.6 °C -9.5 °C 34384.8 hPa ENE 20.9 km/h 20.9 km/h 52 % 0 mm 707.0 W/m2 CLR
11:08 -3.5 °C -9.8 °C 34384.8 hPa NE 15 km/h 15 km/h 50 % 0 mm 721.0 W/m2 CLR
11:13 -3.4 °C -9.6 °C 34384.8 hPa NNE 9 km/h 9 km/h 50 % 0 mm 737.0 W/m2 CLR
11:18 -3.3 °C -9.4 °C 34384.8 hPa ESE 15.6 km/h 15.6 km/h 51 % 0 mm 747.0 W/m2 CLR
11:23 -3.3 °C -9.5 °C 34384.8 hPa East 17.9 km/h 17.9 km/h 50 % 0 mm 758.0 W/m2 CLR
11:28 -3.2 °C -9.4 °C 34384.8 hPa ENE 20.9 km/h 20.9 km/h 50 % 0 mm 758.0 W/m2 CLR
11:33 -3.3 °C -9.7 °C 34384.8 hPa East 17.9 km/h 17.9 km/h 49 % 0 mm 784.0 W/m2 CLR
11:38 -3.3 °C -9.5 °C 34395 hPa East 2.6 km/h   50 % 0 mm 795.0 W/m2 CLR
11:43 -3.2 °C -9.6 °C 34384.8 hPa NE 15.6 km/h 15.6 km/h 49 % 0 mm 775.0 W/m2 CLR
11:48 -3.1 °C -9.7 °C 34395 hPa ENE 26.9 km/h 26.9 km/h 48 % 0 mm 810.0 W/m2 CLR
11:53 -2.9 °C -9.8 °C 34384.8 hPa NE 9 km/h 9 km/h 47 % 0 mm 812.0 W/m2 CLR
11:58 -2.8 °C -9.8 °C 34384.8 hPa East 12.9 km/h 12.9 km/h 46 % 0 mm 817.0 W/m2 CLR
12:03 -2.7 °C -9.5 °C 34384.8 hPa ENE 20.8 km/h 20.8 km/h 47 % 0 mm 837.0 W/m2 CLR
12:08 -2.8 °C -9.8 °C 34384.8 hPa Calm     46 % 0 mm 826.0 W/m2 CLR
12:13 -2.7 °C -9.9 °C 34384.8 hPa East 20.9 km/h 20.9 km/h 45 % 0 mm 800.0 W/m2 CLR
12:18 -2.6 °C -9.8 °C 34384.8 hPa ENE 15 km/h 15 km/h 45 % 0 mm 805.0 W/m2 CLR
12:23 -2.6 °C -9.4 °C 34384.8 hPa ESE 26.9 km/h 26.9 km/h 47 % 0 mm 846.0 W/m2 CLR
12:28 -2.7 °C -9.3 °C 34384.8 hPa ENE 20.9 km/h 20.9 km/h 48 % 0 mm 865.0 W/m2 CLR
12:33 -2.7 °C -9.6 °C 34384.8 hPa SE 29.8 km/h 29.8 km/h 47 % 0 mm 888.0 W/m2 CLR
12:38 -2.7 °C -9.8 °C 34384.8 hPa ESE 20.9 km/h 20.9 km/h 46 % 0 mm 891.0 W/m2 CLR
12:43 -2.7 °C -9.7 °C 34384.8 hPa SE 20.9 km/h 20.9 km/h 46 % 0 mm 884.0 W/m2 CLR
12:48 -2.6 °C -9.6 °C 34384.8 hPa SE 20.9 km/h 20.9 km/h 46 % 0 mm 837.0 W/m2 CLR
12:53 -2.6 °C -9.6 °C 34384.8 hPa ESE 23.3 km/h 23.3 km/h 46 % 0 mm 879.0 W/m2 CLR
12:58 -2.6 °C -9.4 °C 34384.8 hPa ESE 20.9 km/h 20.9 km/h 47 % 0 mm 893.0 W/m2 CLR
13:03 -2.4 °C -9.6 °C 34384.8 hPa ESE 26.9 km/h 26.9 km/h 45 % 0 mm 879.0 W/m2 CLR
13:08 -2.4 °C -9.5 °C 34384.8 hPa East 23.8 km/h 23.8 km/h 46 % 0 mm 902.0 W/m2 CLR
13:13 -2.4 °C -9.5 °C 34371.3 hPa East 26.9 km/h 26.9 km/h 46 % 0 mm 898.0 W/m2 CLR
13:18 -2.4 °C -9.5 °C 34371.3 hPa East 29.8 km/h 29.8 km/h 46 % 0 mm 909.0 W/m2 CLR
13:23 -2.4 °C -9.6 °C 34371.3 hPa East 29.8 km/h 29.8 km/h 45 % 0 mm 912.0 W/m2 CLR
13:28 -2.3 °C -9.4 °C 34371.3 hPa ESE 23.8 km/h 23.8 km/h 46 % 0 mm 905.0 W/m2 CLR
13:33 -2.5 °C -9.6 °C 34371.3 hPa ESE 29.8 km/h 29.8 km/h 46 % 0 mm 911.0 W/m2 CLR
13:38 -2.6 °C -9.4 °C 34371.3 hPa ESE 32.8 km/h 32.8 km/h 47 % 0 mm 911.0 W/m2 CLR
13:43 -2.4 °C -9.5 °C 34371.3 hPa East 32.8 km/h 32.8 km/h 46 % 0 mm 918.0 W/m2 CLR
13:48 -2.5 °C -9.6 °C 34371.3 hPa SE 38.8 km/h 38.8 km/h 46 % 0 mm 919.0 W/m2 CLR
13:54 -2.4 °C -9.5 °C 34371.3 hPa ESE 44.7 km/h 44.7 km/h 46 % 0 mm 914.0 W/m2 CLR
13:59 -2.4 °C -9.4 °C 34371.3 hPa ESE 29.8 km/h 29.8 km/h 46 % 0 mm 914.0 W/m2 CLR
14:04 -2.3 °C -9.4 °C 34371.3 hPa ENE 41.7 km/h 41.7 km/h 46 % 0 mm 921.0 W/m2 CLR
14:09 -2.6 °C -9.4 °C 34361.1 hPa East 35.7 km/h 35.7 km/h 47 % 0 mm 925.0 W/m2 CLR
14:14 -2.5 °C -9.3 °C 34371.3 hPa East 32.8 km/h 32.8 km/h 47 % 0 mm 923.0 W/m2 CLR
14:19 -2.3 °C -9.3 °C 34361.1 hPa East 36.2 km/h 36.2 km/h 46 % 0 mm 919.0 W/m2 CLR
14:24 -2.3 °C -9.3 °C 34361.1 hPa East 26.9 km/h 26.9 km/h 46 % 0 mm 914.0 W/m2 CLR
14:29 -2.1 °C -9 °C 34361.1 hPa ESE 31.1 km/h 31.1 km/h 47 % 0 mm 916.0 W/m2 CLR
14:34 -1.9 °C -9.4 °C 34361.1 hPa ESE 41.7 km/h 41.7 km/h 44 % 0 mm 907.0 W/m2 CLR
14:35 -1.9 °C -9.3 °C 34361.1 hPa ESE 33.6 km/h 33.6 km/h 44 % 0 mm 904.0 W/m2 CLR
14:40 -1.9 °C -9.4 °C 34347.6 hPa East 35.7 km/h 35.7 km/h 44 % 0 mm 911.0 W/m2 CLR
14:45 -1.9 °C -9.3 °C 34347.6 hPa East 32.8 km/h 32.8 km/h 44 % 0 mm 907.0 W/m2 CLR
14:50 -1.8 °C -9.3 °C 34347.6 hPa East 32.8 km/h 32.8 km/h 44 % 0 mm 896.0 W/m2 CLR
14:55 -1.8 °C -9.3 °C 34347.6 hPa East 32.8 km/h 32.8 km/h 44 % 0 mm 881.0 W/m2 CLR
15:00 -1.9 °C -9.4 °C 34347.6 hPa East 35.7 km/h 35.7 km/h 44 % 0 mm 888.0 W/m2 CLR
15:05 -1.8 °C -9.2 °C 34347.6 hPa ESE 41.7 km/h 41.7 km/h 44 % 0 mm 882.0 W/m2 CLR
15:10 -1.4 °C -9.4 °C 34347.6 hPa ESE 36.2 km/h 36.2 km/h 42 % 0 mm 884.0 W/m2 CLR
15:15 -1.5 °C -9.8 °C 34347.6 hPa ESE 56.6 km/h 56.6 km/h 40 % 0 mm 881.0 W/m2 CLR
15:20 -1.5 °C -9.6 °C 34347.6 hPa SE 29.8 km/h 29.8 km/h 41 % 0 mm 872.0 W/m2 CLR
15:25 -1.4 °C -9.7 °C 34347.6 hPa ESE 59.5 km/h 59.5 km/h 40 % 0 mm 858.0 W/m2 CLR
15:30 -1.6 °C -9.7 °C 34347.6 hPa East 53.6 km/h 53.6 km/h 41 % 0 mm 863.0 W/m2 CLR
15:35 -1.6 °C -9.4 °C 34347.6 hPa SSE 32.8 km/h 32.8 km/h 42 % 0 mm 847.0 W/m2 CLR
15:40 -1.6 °C -9.7 °C 34347.6 hPa ESE 44.7 km/h 44.7 km/h 41 % 0 mm 823.0 W/m2 CLR
15:45 -1.5 °C -9.6 °C 34347.6 hPa ESE 47.6 km/h 47.6 km/h 41 % 0 mm 816.0 W/m2 CLR
15:50 -1.5 °C -9.6 °C 34347.6 hPa SE 53.6 km/h 53.6 km/h 41 % 0 mm 823.0 W/m2 CLR
15:55 -1.6 °C -9.8 °C 34347.6 hPa ESE 44.7 km/h 44.7 km/h 41 % 0 mm 824.0 W/m2 CLR
16:00 -1.6 °C -9.7 °C 34347.6 hPa SSE 50.7 km/h 50.7 km/h 41 % 0 mm 814.0 W/m2 CLR
16:05 -1.4 °C -9.6 °C 34347.6 hPa ESE 38.8 km/h 38.8 km/h 41 % 0 mm 807.0 W/m2 CLR
16:10 -1.6 °C -9.9 °C 34337.4 hPa ESE 50.7 km/h 50.7 km/h 40 % 0 mm 798.0 W/m2 CLR
16:15 -1.6 °C -9.9 °C 34337.4 hPa ESE 51.8 km/h 51.8 km/h 40 % 0 mm 786.0 W/m2 CLR
16:20 -1.7 °C -9.8 °C 34337.4 hPa ESE 65.5 km/h 65.5 km/h 41 % 0 mm 779.0 W/m2 CLR
16:25 -1.6 °C -9.7 °C 34337.4 hPa ESE 35.7 km/h 35.7 km/h 41 % 0 mm 765.0 W/m2 CLR
16:30 -1.6 °C -9.9 °C 34337.4 hPa ESE 50.7 km/h 50.7 km/h 40 % 0 mm 763.0 W/m2 CLR
16:35 -1.7 °C -9.8 °C 34337.4 hPa ESE 50.7 km/h 50.7 km/h 41 % 0 mm 752.0 W/m2 CLR
16:40 -1.6 °C -9.7 °C 34337.4 hPa East 53.6 km/h 53.6 km/h 41 % 0 mm 731.0 W/m2 CLR
16:45 -1.8 °C -9.8 °C 34337.4 hPa ESE 50.7 km/h 50.7 km/h 41 % 0 mm 728.0 W/m2 CLR
16:50 -1.6 °C -9.7 °C 34337.4 hPa ESE 44.7 km/h 44.7 km/h 41 % 0 mm 717.0 W/m2 CLR
16:55 -1.5 °C -9.6 °C 34337.4 hPa ESE 33.6 km/h 33.6 km/h 41 % 0 mm 700.0 W/m2 CLR
17:00 -1.5 °C -9.8 °C 34337.4 hPa ESE 50.7 km/h 50.7 km/h 40 % 0 mm 671.0 W/m2 CLR
17:05 -1.8 °C -9.7 °C 34337.4 hPa SE 41.4 km/h 41.4 km/h 42 % 0 mm 628.0 W/m2 CLR
17:10 -1.8 °C -9.7 °C 34337.4 hPa ESE 41.4 km/h 41.4 km/h 42 % 0 mm 631.0 W/m2 CLR
17:15 -1.8 °C -9.7 °C 34337.4 hPa ESE 47.6 km/h 47.6 km/h 42 % 0 mm 640.0 W/m2 CLR
17:16 -1.8 °C -9.7 °C 34337.4 hPa ESE 47.6 km/h 47.6 km/h 42 % 0 mm 640.0 W/m2 CLR
17:21 -1.8 °C -9.7 °C 34337.4 hPa ESE 44.1 km/h 44.1 km/h 42 % 0 mm 633.0 W/m2 CLR
17:26 -1.8 °C -9.7 °C 34337.4 hPa ESE 46.7 km/h 46.7 km/h 42 % 0 mm 631.0 W/m2 CLR
17:31 -1.8 °C -9.7 °C 34337.4 hPa ESE 44.1 km/h 44.1 km/h 42 % 0 mm 612.0 W/m2 CLR
17:36 -1.7 °C -9.4 °C 34337.4 hPa SE 29.8 km/h 29.8 km/h 43 % 0 mm 601.0 W/m2 CLR
17:41 -1.8 °C -9.7 °C 34337.4 hPa SE 50.7 km/h 50.7 km/h 42 % 0 mm 582.0 W/m2 CLR
17:46 -1.8 °C -9.7 °C 34337.4 hPa SE 47.6 km/h 47.6 km/h 42 % 0 mm 547.0 W/m2 CLR
17:49 -1.9 °C -9.6 °C 34337.4 hPa SE 50.7 km/h 50.7 km/h 43 % 0 mm 545.0 W/m2 CLR
17:53 -2.1 °C -9.7 °C 34337.4 hPa ESE 44.7 km/h 44.7 km/h 43 % 0 mm 541.0 W/m2 CLR
17:58 -2 °C -9.7 °C 34337.4 hPa SE 50.7 km/h 50.7 km/h 43 % 0 mm 531.0 W/m2 CLR
18:03 -1.9 °C -9.8 °C 34337.4 hPa SE 44.7 km/h 44.7 km/h 42 % 0 mm 512.0 W/m2 CLR
18:08 -1.9 °C -9.6 °C 34327.3 hPa SE 44.7 km/h 44.7 km/h 43 % 0 mm 483.0 W/m2 CLR
18:13 -1.9 °C -9.6 °C 34337.4 hPa SE 35.7 km/h 35.7 km/h 43 % 0 mm 450.0 W/m2 CLR
18:18 -1.9 °C -9.8 °C 34327.3 hPa SE 41.7 km/h 41.7 km/h 42 % 0 mm 452.0 W/m2 CLR
18:23 -2 °C -9.9 °C 34327.3 hPa SE 38.8 km/h 38.8 km/h 42 % 0 mm 454.0 W/m2 CLR
18:28 -1.9 °C -9.9 °C 34327.3 hPa ESE 35.7 km/h 35.7 km/h 41 % 0 mm 425.0 W/m2 CLR
18:33 -1.9 °C -10.1 °C 34327.3 hPa SSE 38.8 km/h 38.8 km/h 41 % 0 mm 417.0 W/m2 CLR
18:38 -1.9 °C -9.9 °C 34327.3 hPa ESE 41.7 km/h 41.7 km/h 41 % 0 mm 353.0 W/m2 CLR
18:43 -2.1 °C -10.1 °C 34327.3 hPa ESE 41.7 km/h 41.7 km/h 41 % 0 mm 373.0 W/m2 CLR
18:48 -2.1 °C -9.9 °C 34327.3 hPa SE 32.8 km/h 32.8 km/h 42 % 0 mm 329.0 W/m2 CLR
18:53 -2.1 °C -10.2 °C 34327.3 hPa SE 38.8 km/h 38.8 km/h 41 % 0 mm 345.0 W/m2 CLR
18:58 -2.1 °C -10.2 °C 34327.3 hPa ESE 29.8 km/h 29.8 km/h 41 % 0 mm 294.0 W/m2 CLR
19:03 -2.2 °C -10 °C 34327.3 hPa ESE 29.8 km/h 29.8 km/h 42 % 0 mm 295.0 W/m2 CLR
19:08 -2.3 °C -10.2 °C 34327.3 hPa ESE 29.8 km/h 29.8 km/h 42 % 0 mm 229.0 W/m2 CLR
19:13 -2.3 °C -10.2 °C 34337.4 hPa ESE 26.9 km/h 26.9 km/h 42 % 0 mm 172.0 W/m2 CLR
19:18 -2.4 °C -10.4 °C 34337.4 hPa ESE 25.9 km/h 25.9 km/h 41 % 0 mm 214.0 W/m2 CLR
19:23 -2.6 °C -10.3 °C 34337.4 hPa ESE 35.7 km/h 35.7 km/h 42 % 0 mm 211.0 W/m2 CLR
19:28 -2.6 °C -10.4 °C 34337.4 hPa SE 29.8 km/h 29.8 km/h 42 % 0 mm 287.0 W/m2 CLR
19:33 -2.6 °C -10.4 °C 34337.4 hPa SE 32.8 km/h 32.8 km/h 42 % 0 mm 239.0 W/m2 CLR
19:38 -2.6 °C -10.4 °C 34337.4 hPa ESE 31.1 km/h 31.1 km/h 42 % 0 mm 269.0 W/m2 CLR
19:43 -2.7 °C -10.4 °C 34337.4 hPa SE 29.8 km/h 29.8 km/h 42 % 0 mm 255.0 W/m2 CLR
19:48 -2.6 °C -10.4 °C 34347.6 hPa SE 18.2 km/h 18.2 km/h 42 % 0 mm 176.0 W/m2 CLR
19:53 -2.6 °C -10.4 °C 34347.6 hPa SE 29.8 km/h 29.8 km/h 42 % 0 mm 202.0 W/m2 CLR
19:58 -2.7 °C -10.4 °C 34347.6 hPa SSE 20.8 km/h 20.8 km/h 42 % 0 mm 193.0 W/m2 CLR
20:03 -2.7 °C -10.4 °C 34347.6 hPa SE 31.1 km/h 31.1 km/h 42 % 0 mm 151.0 W/m2 CLR
20:08 -2.8 °C -10.2 °C 34347.6 hPa SE 23.3 km/h 23.3 km/h 44 % 0 mm 128.0 W/m2 CLR
20:13 -2.9 °C -10.4 °C 34347.6 hPa SE 20.9 km/h 20.9 km/h 43 % 0 mm 84.0 W/m2 CLR
20:18 -2.9 °C -10.5 °C 34347.6 hPa SSE 26.9 km/h 26.9 km/h 43 % 0 mm 56.0 W/m2 FEW
20:23 -3 °C -10.8 °C 34361.1 hPa ESE 29.8 km/h 29.8 km/h 42 % 0 mm 46.0 W/m2 SCT
20:28 -3.1 °C -10.7 °C 34361.1 hPa SE 20.9 km/h 20.9 km/h 43 % 0 mm 40.0 W/m2 BKN
20:33 -3.2 °C -10.5 °C 34361.1 hPa SE 17.9 km/h 17.9 km/h 44 % 0 mm 33.0 W/m2 BKN
20:38 -3.3 °C -10.6 °C 34361.1 hPa SE 23.8 km/h 23.8 km/h 44 % 0 mm 26.0 W/m2 BKN
20:43 -3.4 °C -10.5 °C 34361.1 hPa SE 20.9 km/h 20.9 km/h 45 % 0 mm 21.0 W/m2 BKN
20:49 -3.4 °C -10.6 °C 34371.3 hPa SE 15.6 km/h 15.6 km/h 45 % 0 mm 18.0 W/m2 BKN
20:54 -3.5 °C -10.7 °C 34371.3 hPa SE 20.9 km/h 20.9 km/h 45 % 0 mm 14.0 W/m2 BKN
20:59 -3.6 °C -10.5 °C 34371.3 hPa SE 12.9 km/h 12.9 km/h 46 % 0 mm 11.0 W/m2 BKN
21:04 -3.7 °C -10.6 °C 34371.3 hPa SSE 10.3 km/h 10.3 km/h 46 % 0 mm 7.0 W/m2 BKN
21:09 -3.8 °C -10.5 °C 34371.3 hPa SSE 11.9 km/h 11.9 km/h 47 % 0 mm 5.0 W/m2 BKN
21:14 -3.9 °C -10.7 °C 34371.3 hPa SE 15 km/h 15 km/h 47 % 0 mm 0.0 W/m2 OVC
21:19 -4.1 °C -10.1 °C 34371.3 hPa ENE 6 km/h 6 km/h 51 % 0 mm 0.0 W/m2 OVC
21:24 -4.3 °C -9.8 °C 34371.3 hPa Calm     54 % 0 mm 0.0 W/m2 OVC
21:29 -4.7 °C -9.8 °C 34384.8 hPa East 12.9 km/h 12.9 km/h 56 % 0 mm 0.0 W/m2 OVC
21:34 -4.8 °C -9.8 °C 34384.8 hPa ESE 2.6 km/h   57 % 0 mm 0.0 W/m2 CLR
21:39 -4.9 °C -9.8 °C 34384.8 hPa Calm     58 % 0 mm 0.0 W/m2 CLR
21:44 -5.1 °C -9.8 °C 34384.8 hPa East 9 km/h   59 % 0 mm 0.0 W/m2 CLR
21:49 -5.2 °C -9.6 °C 34384.8 hPa East 9 km/h 9 km/h 61 % 0 mm 0.0 W/m2 CLR
21:54 -5.4 °C -9.6 °C 34395 hPa East 9 km/h   63 % 0 mm 0.0 W/m2 CLR
21:59 -5.6 °C -9.6 °C 34395 hPa East 6 km/h   64 % 0 mm 0.0 W/m2 CLR
22:04 -5.7 °C -9.6 °C 34395 hPa East 9 km/h 9 km/h 65 % 0 mm 0.0 W/m2 CLR
22:09 -5.8 °C -9.6 °C 34405.1 hPa ESE 15 km/h 15 km/h 65 % 0 mm 0.0 W/m2 CLR
22:14 -5.8 °C -9.5 °C 34405.1 hPa East 15 km/h 15 km/h 66 % 0 mm 0.0 W/m2 CLR
22:19 -5.9 °C -9.5 °C 34405.1 hPa ESE 11.9 km/h   67 % 0 mm 0.0 W/m2 CLR
22:24 -6 °C -9.4 °C 34418.7 hPa ESE 10.3 km/h 10.3 km/h 68 % 0 mm 0.0 W/m2 CLR
22:29 -6.1 °C -9.3 °C 34418.7 hPa SE 17.9 km/h 17.9 km/h 69 % 0 mm 0.0 W/m2 CLR
22:34 -6.2 °C -9.3 °C 34418.7 hPa ESE 15 km/h 15 km/h 70 % 0 mm 0.0 W/m2 CLR
22:39 -6.2 °C -9.4 °C 34418.7 hPa Calm     70 % 0 mm 0.0 W/m2 CLR
22:44 -6.3 °C -9.4 °C 34418.7 hPa ESE 9 km/h 9 km/h 70 % 0 mm 0.0 W/m2 CLR
22:49 -6.3 °C -9.4 °C 34418.7 hPa ESE 17.9 km/h 17.9 km/h 71 % 0 mm 0.0 W/m2 CLR
22:54 -6.4 °C -9.4 °C 34418.7 hPa ESE 9 km/h 9 km/h 71 % 0 mm 0.0 W/m2 CLR
23:04 -6.4 °C -9.4 °C 34418.7 hPa ESE 11.9 km/h 11.9 km/h 71 % 0 mm 0.0 W/m2 CLR
23:09 -6.4 °C -9.4 °C 34418.7 hPa ESE 10.3 km/h 10.3 km/h 71 % 0 mm 0.0 W/m2 CLR
23:14 -6.4 °C -9.5 °C 34418.7 hPa ESE 2.6 km/h   71 % 0 mm 0.0 W/m2 CLR
23:19 -6.4 °C -9.5 °C 34418.7 hPa Calm     71 % 0 mm 0.0 W/m2 CLR
23:24 -6.5 °C -9.6 °C 34418.7 hPa Calm     71 % 0 mm 0.0 W/m2 CLR
23:29 -6.6 °C -9.5 °C 34418.7 hPa Calm     72 % 0 mm 0.0 W/m2 CLR
23:34 -6.7 °C -9.6 °C 34418.7 hPa Calm     72 % 0 mm 0.0 W/m2 CLR
23:39 -6.8 °C -9.6 °C 34428.8 hPa Calm     73 % 0 mm 0.0 W/m2 CLR
23:44 -6.8 °C -9.5 °C 34428.8 hPa Calm     74 % 0 mm 0.0 W/m2 CLR
23:49 -6.8 °C -9.5 °C 34428.8 hPa Calm     74 % 0 mm 0.0 W/m2 CLR
23:54 -6.9 °C -9.4 °C 34428.8 hPa Calm     75 % 0 mm 0.0 W/m2 CLR
23:59 -6.9 °C -9.4 °C 34428.8 hPa Calm     75 % 0 mm 0.0 W/m2 CLR
Lo Temps de Massalio
Compliments of Weather Underground - 1.25 mb